[[{"header":{"parameterUnit":"m.s-1","parameterCategory":1,"la1":30.2991,"la2":30.254,"lo1":-89.0895,"lo2":-89.0444,"dy":0.0017,"dx":0.0017,"nx":28,"ny":28,"refTime":"2024-12-17T03:00:00:Z","depth":0,"parameterNumber":2,"parameterNumberName":"U-component_of_WINDS"},"data":[0,0,0,0,0,0,0,0,0,0,0,0,0,0,0,0,0,0,0,0,0,0,0,0,0,0,0,0,0,0,0,0,0,0,0,0,0,0,0,0,0,0,0,0,0,0,0,0,0,0,0,0,0,0,0,0,0,0,0.1524,0.1524,0,0.1494,0.1493,0.1493,0.1474,0.1474,0.1474,0.1474,0.1443,0.1442,0.1442,0,0,0,0,0,0,0,0,0,0,0,0,0,0.1568,0.1568,0.1525,0.1524,0.1524,0.1494,0.1493,0.1493,0.1474,0.1474,0.1474,0.1474,0.1443,0.1443,0.1442,0,0,0,0,0,0,0,0,0,0,0,0,0,0.1545,0.1567,0.1525,0.1511,0.1509,0.1494,0.1493,0.1493,0.1474,0.1474,0.1474,0.1474,0.1444,0.1443,0.1442,0.1438,0,0,0.1438,0.1438,0,0,0,0,0,0,0,0,0.1546,0.1543,0.1513,0.1512,0.151,0.1487,0.1497,0.1474,0.1474,0.1487,0.1474,0.1474,0.1458,0.1456,0.145,0.1436,0.1435,0.1438,0.1438,0.1437,0.1437,0,0,0,0,0,0,0,0.1548,0.1544,0.1512,0.1513,0.1511,0.1506,0.1503,0.1493,0.1474,0.1486,0.1485,0.1481,0.1457,0.1452,0.145,0.1435,0.1438,0.1437,0.1437,0.1436,0.1416,0.1416,0,0,0,0,0,0,0.1551,0.1546,0.1513,0.1511,0.1528,0.1506,0.1502,0.1495,0.1474,0.1471,0.1481,0.1481,0.1453,0.1451,0.1448,0.1442,0.1437,0.1436,0.1435,0.1416,0.1416,0.1416,0,0,0,0,0,0,0.1552,0.1549,0.1515,0.1528,0.1523,0.1505,0.1498,0.1494,0.1489,0.147,0.1467,0.1479,0.1453,0.145,0.144,0.1441,0.1436,0.1435,0.1416,0.1416,0.1416,0.1431,0,0,0,0,0,0,0.1554,0.1549,0.1547,0.1528,0.1523,0.1507,0.1498,0.1494,0.1487,0.1485,0.1467,0.1464,0.1453,0.1442,0.1439,0.144,0.1434,0.1416,0.1416,0.1416,0.143,0.1431,0.1433,0,0,0,0,0,0.1555,0.1553,0.1547,0.1543,0.152,0.1507,0.1504,0.1491,0.1487,0.1485,0.1473,0.1465,0.1442,0.1441,0.1438,0.1438,0.1415,0.1416,0.1416,0.143,0.1431,0.1432,0,0,0,0,0,0,0.1573,0.155,0.1544,0.1535,0.1523,0.1504,0.1501,0.1493,0.1482,0.1481,0.1465,0.1461,0.1453,0.1445,0.1445,0.1433,0.1428,0.1427,0.1439,0.144,0.1442,0.1444,0.1433,0,0,0,0,0,0.1576,0.1567,0.1548,0.1542,0.1536,0.152,0.1514,0.1504,0.1491,0.1486,0.1474,0.1462,0.1452,0.1446,0.1435,0.1429,0.1425,0.1427,0.1428,0.1429,0.1429,0.1425,0.1426,0.1417,0.1417,0.1417,0,0,0.1582,0.1568,0.1564,0.1545,0.1535,0.1526,0.1516,0.1507,0.15,0.1485,0.1475,0.1466,0.1451,0.1443,0.1439,0.1436,0.1431,0.143,0.1431,0.143,0.1425,0.1426,0.1427,0.1417,0.1417,0.1417,0,0,0.1588,0.1577,0.1571,0.1561,0.1545,0.1534,0.1532,0.1514,0.1507,0.1497,0.1485,0.1477,0.1461,0.1451,0.1444,0.1446,0.1438,0.1443,0.1449,0.1445,0.1446,0.1446,0.1447,0.1448,0.1443,0.1443,0.1443,0,0.1598,0.1584,0.1569,0.1561,0.1553,0.1538,0.1532,0.1523,0.1505,0.15,0.1496,0.1474,0.1464,0.1453,0.1454,0.1448,0.1446,0.1445,0.1447,0.1447,0.1448,0.1448,0.1448,0.1444,0.1444,0.1444,0.1443,0,0.1596,0.1587,0.1584,0.1566,0.1558,0.1551,0.1535,0.1529,0.152,0.1509,0.1499,0.1486,0.1473,0.1469,0.1461,0.1457,0.1456,0.145,0.1444,0.1449,0.145,0.145,0.1445,0.1444,0.1444,0.1444,0,0,0.1614,0.1587,0.1586,0.1578,0.1559,0.1552,0.1544,0.153,0.1525,0.1513,0.1506,0.1492,0.1486,0.1478,0.1469,0.1465,0.1468,0.1459,0.1459,0.1461,0.1463,0.1467,0.1468,0.1462,0.1462,0.1462,0.1464,0,0.1617,0.1602,0.1588,0.1578,0.1569,0.1555,0.1548,0.1536,0.1526,0.1517,0.1506,0.1496,0.1489,0.1484,0.148,0.1468,0.1468,0.1468,0.1456,0.1455,0.146,0.1468,0.1473,0.1475,0.1464,0.1464,0.1464,0,0.1619,0.1607,0.1596,0.1578,0.1573,0.1567,0.1554,0.1545,0.1531,0.1524,0.1515,0.1505,0.1496,0.1491,0.1479,0.1479,0.1474,0.1467,0.1467,0.1465,0.146,0.1466,0.1475,0.1476,0.1464,0.1464,0.1464,0,0.1633,0.1614,0.1604,0.1598,0.1576,0.1572,0.1563,0.1549,0.1542,0.153,0.1525,0.1513,0.1506,0.1497,0.1484,0.1481,0.1473,0.1467,0.1467,0.1467,0.1466,0.1466,0.1474,0.1462,0.1462,0.1462,0.1462,0,0.1638,0.1632,0.161,0.1604,0.1597,0.1581,0.1574,0.1564,0.1552,0.1544,0.1531,0.1524,0.1507,0.1498,0.1488,0.1479,0.1477,0.1471,0.1468,0.1472,0.1473,0.1468,0.1467,0.1462,0.1462,0.1462,0.1462,0,0.1652,0.1637,0.1626,0.1606,0.1601,0.1597,0.158,0.1574,0.1563,0.1553,0.155,0.1533,0.1522,0.1508,0.1493,0.1486,0.1478,0.1474,0.1483,0.1481,0.1482,0.1482,0.1487,0.1487,0.1476,0.1476,0.1476,0,0.1656,0.1651,0.1631,0.1624,0.1615,0.1605,0.1598,0.1582,0.1575,0.1558,0.1554,0.1542,0.1531,0.1514,0.1501,0.1489,0.1484,0.1487,0.1483,0.1486,0.1484,0.1485,0.1484,0.1488,0.1488,0.1489,0.1489,0,0.1666,0.1659,0.1648,0.1634,0.1625,0.1614,0.1602,0.1597,0.1579,0.1572,0.156,0.1552,0.1536,0.1524,0.151,0.1501,0.1492,0.149,0.149,0.1493,0.1499,0.1496,0.1486,0.149,0.149,0.149,0.149,0.149,0.1675,0.1669,0.1654,0.1642,0.1631,0.1621,0.1614,0.1602,0.1591,0.1577,0.1568,0.1557,0.1543,0.1523,0.1515,0.1506,0.1502,0.1502,0.1501,0.1501,0.1502,0.15,0.1503,0.1503,0.1503,0.1503,0.1503,0,0.1684,0.1673,0.1662,0.1645,0.1636,0.1628,0.1614,0.1607,0.1597,0.1584,0.1574,0.156,0.1549,0.1534,0.1521,0.1517,0.1513,0.1514,0.1514,0.1513,0.1506,0.1508,0.1518,0.1518,0.1518,0.1518,0.1518,0.1518,0.1687,0.1677,0.1668,0.1653,0.1642,0.163,0.1623,0.1613,0.1603,0.1588,0.1578,0.1568,0.1555,0.1541,0.153,0.1526,0.1522,0.1525,0.152,0.1514,0.1513,0.1512,0.1513,0.1524,0.1524,0.1527,0.1527,0.1527]},{"header":{"parameterUnit":"m.s-1","parameterCategory":1,"la1":30.2991,"la2":30.254,"lo1":-89.0895,"lo2":-89.0444,"dy":0.0017,"dx":0.0017,"nx":28,"ny":28,"refTime":"2024-12-17T03:00:00:Z","depth":0,"parameterNumber":3,"parameterNumberName":"V-component_of_WINDS"},"data":[0,0,0,0,0,0,0,0,0,0,0,0,0,0,0,0,0,0,0,0,0,0,0,0,0,0,0,0,0,0,0,0,0,0,0,0,0,0,0,0,0,0,0,0,0,0,0,0,0,0,0,0,0,0,0,0,0,0,-1.8343,-1.8343,0,-1.8397,-1.8397,-1.8398,-1.842,-1.842,-1.842,-1.8419,-1.847,-1.8472,-1.8473,0,0,0,0,0,0,0,0,0,0,0,0,0,-1.8256,-1.8257,-1.8343,-1.8344,-1.8344,-1.8396,-1.8397,-1.8398,-1.842,-1.842,-1.8419,-1.8419,-1.847,-1.8471,-1.8473,0,0,0,0,0,0,0,0,0,0,0,0,0,-1.83,-1.8258,-1.8343,-1.8361,-1.8364,-1.8396,-1.8397,-1.8398,-1.842,-1.842,-1.8419,-1.8419,-1.8469,-1.8471,-1.8473,-1.849,0,0,-1.848,-1.8481,0,0,0,0,0,0,0,0,-1.8297,-1.8303,-1.8358,-1.836,-1.8363,-1.8401,-1.8385,-1.8429,-1.842,-1.8398,-1.8419,-1.8419,-1.8447,-1.8451,-1.8461,-1.8493,-1.8495,-1.848,-1.8482,-1.8483,-1.8483,0,0,0,0,0,0,0,-1.8294,-1.8301,-1.8364,-1.8359,-1.8362,-1.8366,-1.8372,-1.8394,-1.8423,-1.84,-1.8402,-1.8408,-1.8448,-1.8459,-1.8463,-1.8495,-1.848,-1.8482,-1.8484,-1.8484,-1.8544,-1.8544,0,0,0,0,0,0,-1.8289,-1.8298,-1.8362,-1.8366,-1.8329,-1.8368,-1.8375,-1.8389,-1.8423,-1.8428,-1.8408,-1.8409,-1.8456,-1.846,-1.8465,-1.8487,-1.8483,-1.8485,-1.8486,-1.8543,-1.8544,-1.8544,0,0,0,0,0,0,-1.8287,-1.8294,-1.836,-1.8332,-1.8341,-1.837,-1.8386,-1.839,-1.8401,-1.8429,-1.8434,-1.8414,-1.8456,-1.8462,-1.8484,-1.8489,-1.8486,-1.8488,-1.8543,-1.8543,-1.8544,-1.8532,0,0,0,0,0,0,-1.8284,-1.8293,-1.8301,-1.8332,-1.8343,-1.838,-1.8386,-1.8391,-1.8405,-1.8407,-1.8436,-1.844,-1.8456,-1.8481,-1.8486,-1.8492,-1.8489,-1.8543,-1.8543,-1.8544,-1.8532,-1.8531,-1.8531,0,0,0,0,0,-1.8281,-1.8294,-1.8301,-1.8309,-1.8353,-1.838,-1.8386,-1.8404,-1.8406,-1.8413,-1.8431,-1.844,-1.8488,-1.8483,-1.8489,-1.8496,-1.8542,-1.8543,-1.8544,-1.8532,-1.8531,-1.8531,0,0,0,0,0,0,-1.826,-1.8298,-1.8307,-1.8331,-1.8352,-1.8384,-1.8393,-1.8403,-1.8424,-1.8424,-1.8446,-1.8452,-1.8473,-1.8486,-1.848,-1.8514,-1.8516,-1.8518,-1.8504,-1.8504,-1.8504,-1.85,-1.8491,0,0,0,0,0,-1.8259,-1.8279,-1.8311,-1.8329,-1.8339,-1.8364,-1.8377,-1.839,-1.8412,-1.8421,-1.8441,-1.8461,-1.8481,-1.8493,-1.8513,-1.8534,-1.854,-1.8541,-1.8541,-1.8541,-1.8542,-1.8555,-1.8556,-1.8546,-1.8546,-1.8546,0,0,-1.8255,-1.8279,-1.829,-1.8325,-1.8343,-1.8363,-1.8372,-1.8392,-1.8406,-1.8424,-1.8447,-1.8462,-1.8486,-1.8508,-1.8518,-1.852,-1.8546,-1.8542,-1.8541,-1.8543,-1.8555,-1.8556,-1.8557,-1.8546,-1.8546,-1.8546,0,0,-1.8259,-1.8279,-1.8297,-1.8315,-1.8343,-1.836,-1.8364,-1.8395,-1.8406,-1.843,-1.8443,-1.846,-1.8494,-1.8511,-1.8524,-1.8535,-1.8544,-1.8541,-1.854,-1.8552,-1.8553,-1.8554,-1.8558,-1.8559,-1.8542,-1.8542,-1.8542,0,-1.8251,-1.8283,-1.8304,-1.8324,-1.8339,-1.8358,-1.8375,-1.8392,-1.8424,-1.8433,-1.8435,-1.8479,-1.8496,-1.8522,-1.8525,-1.8535,-1.854,-1.8538,-1.8551,-1.8552,-1.8553,-1.8558,-1.8559,-1.8542,-1.8542,-1.8542,-1.8542,0,-1.8271,-1.8293,-1.8304,-1.8337,-1.8353,-1.8371,-1.8395,-1.8408,-1.842,-1.8436,-1.846,-1.8482,-1.8507,-1.8514,-1.8525,-1.8542,-1.8542,-1.8547,-1.8549,-1.8553,-1.8558,-1.856,-1.8541,-1.8541,-1.8541,-1.8541,0,0,-1.8263,-1.8309,-1.8313,-1.8328,-1.8361,-1.8377,-1.8396,-1.8422,-1.8434,-1.8455,-1.8472,-1.8501,-1.8506,-1.852,-1.8533,-1.8544,-1.8552,-1.8547,-1.8548,-1.8548,-1.8573,-1.8569,-1.8571,-1.8558,-1.8558,-1.8559,-1.8571,0,-1.8272,-1.8309,-1.833,-1.8358,-1.8378,-1.8396,-1.8413,-1.8434,-1.845,-1.8468,-1.8485,-1.8505,-1.851,-1.852,-1.8531,-1.8548,-1.8557,-1.8548,-1.8573,-1.8573,-1.8566,-1.8573,-1.8569,-1.8579,-1.8572,-1.8573,-1.8573,0,-1.8287,-1.831,-1.8341,-1.8373,-1.8382,-1.8397,-1.8423,-1.844,-1.8465,-1.8475,-1.8493,-1.8506,-1.8526,-1.8526,-1.8554,-1.8548,-1.8559,-1.8569,-1.857,-1.8573,-1.8573,-1.8576,-1.8583,-1.8584,-1.8576,-1.8576,-1.8575,0,-1.8278,-1.8318,-1.8341,-1.8354,-1.8391,-1.8401,-1.8417,-1.8441,-1.8456,-1.8478,-1.8487,-1.8511,-1.8523,-1.8541,-1.856,-1.8558,-1.8586,-1.8588,-1.8595,-1.8594,-1.86,-1.8599,-1.8608,-1.8606,-1.8606,-1.8606,-1.8606,0,-1.8286,-1.8304,-1.8338,-1.8353,-1.8374,-1.8396,-1.8416,-1.8433,-1.8454,-1.8472,-1.8488,-1.8504,-1.8528,-1.8546,-1.8561,-1.8582,-1.8587,-1.8596,-1.86,-1.8595,-1.8594,-1.8602,-1.8602,-1.8607,-1.8607,-1.8607,-1.8607,0,-1.828,-1.8304,-1.8331,-1.8365,-1.8373,-1.8387,-1.8415,-1.843,-1.8447,-1.8469,-1.8475,-1.8501,-1.8524,-1.8545,-1.8574,-1.8584,-1.8605,-1.861,-1.8598,-1.86,-1.8606,-1.8605,-1.8621,-1.8624,-1.862,-1.862,-1.862,0,-1.8284,-1.8298,-1.8334,-1.8348,-1.8364,-1.8385,-1.8401,-1.8424,-1.8439,-1.8469,-1.8479,-1.8504,-1.8524,-1.8559,-1.858,-1.8603,-1.8608,-1.8612,-1.8612,-1.8606,-1.8609,-1.8608,-1.8609,-1.8612,-1.8612,-1.8612,-1.8612,0,-1.8287,-1.8299,-1.8321,-1.8348,-1.8367,-1.8389,-1.8411,-1.8421,-1.8448,-1.8464,-1.8488,-1.8504,-1.8535,-1.8559,-1.8584,-1.8599,-1.861,-1.8612,-1.8615,-1.861,-1.8603,-1.8607,-1.8597,-1.8611,-1.8612,-1.8612,-1.8612,-1.8612,-1.8287,-1.8301,-1.8329,-1.8353,-1.8373,-1.8394,-1.8409,-1.8429,-1.845,-1.8479,-1.849,-1.8515,-1.8539,-1.8575,-1.859,-1.8609,-1.8611,-1.8614,-1.8616,-1.8616,-1.8616,-1.86,-1.8613,-1.8613,-1.8613,-1.8613,-1.8613,0,-1.8292,-1.8311,-1.8333,-1.8365,-1.8384,-1.8395,-1.842,-1.8435,-1.8457,-1.848,-1.85,-1.8528,-1.8551,-1.8575,-1.8599,-1.861,-1.8615,-1.8615,-1.8615,-1.8618,-1.8612,-1.8608,-1.8611,-1.8611,-1.8611,-1.8611,-1.8611,-1.8611,-1.8297,-1.8322,-1.8336,-1.8371,-1.839,-1.8415,-1.8429,-1.8448,-1.8466,-1.8497,-1.8518,-1.8533,-1.8556,-1.8582,-1.8604,-1.861,-1.8618,-1.8617,-1.8624,-1.8618,-1.8618,-1.8618,-1.8614,-1.8618,-1.8618,-1.8629,-1.8629,-1.8629]}]]